Probability
0 0 0 0 0 0 0 0 0 0 0 0 0 0 0 0 0 0 0 0 0 1 3 4 2 1 1 1 1 1 1 1 2 3 3 1 0 0 0 0 0 0 0
0 0 0 0 0 0 0 0 0 0 0 0 0 0 0 0 0 0 0 0 0 1 2 3 3 2 1 1 0 0 0 1 2 3 3 2 1 0 0 0 0 0 0
0 0 0 0 0 0 0 0 0 0 0 0 0 0 0 0 0 0 0 0 0 1 1 2 3 3 2 1 0 0 0 0 1 2 2 2 1 0 0 0 0 0 0
0 0 0 0 0 0 0 0 0 0 0 0 0 0 0 0 0 0 0 0 0 1 2 3 3 3 2 1 0 0 0 0 0 1 1 1 1 0 0 0 0 0 0
0 0 0 0 0 0 0 0 0 0 0 0 0 0 0 0 0 0 0 0 0 1 2 3 3 3 2 2 1 0 0 0 0 0 1 1 1 0 0 0 0 0 0
0 0 0 0 0 0 0 0 0 0 0 0 0 0 0 0 0 0 0 0 0 1 2 3 3 3 3 2 1 0 0 0 0 1 2 2 1 0 0 0 0 0 0
0 0 0 0 0 0 0 0 0 0 0 0 0 0 0 0 0 0 0 0 0 1 2 3 3 3 3 3 1 0 0 0 1 2 3 3 2 1 0 0 0 0 0
0 0 0 0 0 0 0 0 0 0 0 0 0 0 0 0 0 0 0 0 0 0 1 2 3 3 3 3 2 0 0 0 1 2 3 3 3 2 1 0 0 0 0
0 0 0 0 0 0 0 0 0 0 0 0 0 0 0 0 0 0 0 0 0 0 0 1 3 3 3 3 1 0 0 0 1 1 2 3 3 3 2 1 0 0 0
0 0 0 0 0 0 0 0 0 0 0 0 0 0 0 0 0 0 0 0 0 0 0 1 2 3 3 2 1 0 0 0 0 0 1 2 3 3 2 1 0 0 0
0 0 0 0 0 0 0 0 0 0 0 0 0 0 0 0 0 0 0 0 0 0 0 0 1 2 1 1 0 0 0 0 0 0 0 1 2 2 1 1 0 0 0
0 0 0 0 0 0 0 0 0 0 0 0 0 0 0 0 0 0 0 0 0 0 0 0 0 0 0 0 0 0 0 0 0 0 0 0 1 1 0 0 0 0 0
0 0 0 0 0 0 0 0 0 0 0 0 0 0 0 0 0 0 0 0 0 0 0 0 0 0 0 0 0 0 0 0 0 0 0 0 0 0 0 0 0 0 0
0 0 0 0 0 0 0 0 0 0 0 0 0 0 0 0 0 0 0 0 0 0 0 0 0 0 0 0 0 0 0 0 0 0 0 0 0 0 0 0 0 0 0
0 0 0 0 0 0 0 0 0 0 0 0 0 0 0 0 0 0 0 0 0 0 0 0 0 0 0 0 0 0 0 0 0 0 0 0 0 0 0 0 0 0 0
0 0 0 0 0 0 0 0 0 0 0 0 0 0 0 0 0 0 0 0 0 0 0 0 0 0 0 0 0 0 0 0 0 0 0 0 0 0 0 0 0 0 0
0 0 0 0 0 0 0 0 0 0 0 0 0 0 0 0 0 0 0 0 0 0 0 0 0 0 0 0 0 0 0 0 0 0 0 0 0 0 0 0 0 0 0
0 0 0 0 0 0 0 0 0 0 0 0 0 0 0 0 0 0 0 0 0 0 0 0 0 0 0 0 0 0 0 0 0 0 0 0 0 0 0 0 0 0 0
0 0 0 0 0 0 0 0 0 0 0 0 0 0 0 0 0 0 0 0 0 0 0 0 0 0 0 0 0 0 0 0 0 0 0 0 0 0 0 0 0 0 0
0 0 0 0 0 0 0 0 0 0 0 0 0 0 0 0 0 0 0 0 0 0 0 0 0 0 0 0 0 0 0 0 0 0 0 0 0 0 0 0 0 0 0
0 0 0 0 0 0 0 0 0 0 0 0 0 0 0 0 0 0 0 0 0 0 0 0 0 0 0 0 0 0 0 0 0 0 0 0 0 0 0 0 0 0 0
0 0 0 0 0 0 0 0 0 0 0 0 0 0 0 0 0 0 0 0 0 0 0 0 0 0 0 0 0 0 0 0 0 0 0 0 0 0 0 0 0 0 0
0 0 0 0 0 0 0 0 0 0 0 0 0 0 0 0 0 0 0 0 0 0 0 0 0 0 0 0 0 0 0 0 0 0 0 0 0 0 0 0 0 0 0
0 0 0 0 0 0 0 0 0 0 0 0 0 0 0 0 0 0 0 0 0 0 0 0 0 0 0 0 0 0 0 0 0 0 0 0 0 0 0 0 0 0 0
0 0 0 0 0 0 0 0 0 0 0 0 0 0 0 0 0 0 0 0 0 0 0 0 0 0 0 0 0 0 0 0 0 0 0 0 0 0 0 0 0 0 0
0 0 0 0 0 0 0 0 0 0 0 0 0 0 0 0 0 0 0 0 0 0 0 0 0 0 0 0 0 0 0 0 0 0 0 0 0 0 0 0 0 0 0
Wind_Speed
1 2 3 5 5 6 7 7 8 8 7 5 5 4 4 4 4 4 5 6 6 5 4 3 3 2 2 3 4 4 5 5 3 3 4 4 5 6 6 6 6 8 9
2 3 4 5 6 6 7 7 7 7 7 5 4 3 3 3 3 4 5 6 6 5 4 4 2 2 2 3 2 2 3 3 3 2 2 3 3 5 6 6 7 7 6
1 2 3 4 5 6 6 7 7 7 7 7 4 4 3 3 3 5 5 5 6 5 4 4 3 2 2 2 2 2 2 3 3 2 3 3 4 2 3 6 6 6 6
1 1 2 3 4 5 5 6 6 6 7 6 5 5 4 4 4 4 4 5 5 5 5 4 4 3 2 2 2 1 2 2 2 3 3 3 2 2 3 2 4 6 6
2 1 1 2 3 3 4 5 6 6 6 6 5 4 4 4 4 4 5 5 5 5 5 5 4 3 3 3 3 2 2 1 2 2 2 3 2 2 3 4 3 3 5
2 2 2 1 2 3 4 4 5 5 6 6 6 5 5 5 5 5 5 5 4 4 6 5 4 4 3 3 3 2 2 2 2 2 2 2 2 2 3 4 4 4 4
3 2 2 2 2 3 3 4 4 4 5 5 5 5 5 5 5 5 4 5 4 4 6 5 5 4 4 4 3 2 2 2 2 2 2 2 3 2 2 3 3 4 3
4 3 3 3 2 2 3 3 3 4 4 5 5 4 4 3 3 4 4 4 4 4 5 5 5 5 5 5 4 3 3 2 3 3 3 3 3 2 2 2 3 4 4
5 4 4 3 3 2 2 2 2 3 4 4 4 4 4 4 4 5 4 3 4 4 5 5 5 5 5 5 4 3 3 3 3 3 4 3 3 2 2 2 3 4 6
5 5 4 4 3 3 2 2 2 2 2 3 3 3 4 4 4 4 5 4 5 4 5 5 5 5 5 5 5 4 4 4 3 3 4 4 3 3 2 3 3 3 5
6 6 5 4 3 2 2 2 2 2 2 3 3 3 4 4 4 4 4 5 4 5 5 5 5 5 5 5 5 5 5 5 4 4 4 5 4 3 3 3 3 3 4
6 5 5 4 3 3 3 2 2 1 2 2 2 3 3 4 4 4 5 4 4 5 5 4 5 5 5 5 5 5 5 5 5 5 5 5 5 4 4 3 4 4 4
5 5 4 4 4 4 3 3 2 2 2 1 2 3 3 4 4 4 4 4 4 5 5 5 5 5 5 5 5 5 5 5 5 5 5 5 5 5 4 4 4 4 4
6 5 5 5 5 4 4 3 3 2 1 1 1 2 3 3 3 4 4 4 4 4 4 4 4 4 5 5 4 4 4 4 4 4 4 5 5 5 6 5 5 4 5
6 7 6 6 5 4 4 3 3 2 1 1 1 2 3 3 3 3 4 3 3 4 4 4 4 5 4 4 5 4 4 4 5 5 5 5 7 9 7 6 5 5 5
8 7 7 6 6 5 5 4 3 3 2 1 2 2 2 2 3 3 3 3 3 4 3 4 4 5 5 9 10 7 4 4 4 5 5 6 7 9 11 12 11 8 6
7 7 7 7 7 6 5 5 4 3 2 2 2 2 2 2 3 3 3 3 3 3 3 4 4 4 6 11 11 11 5 4 4 5 5 6 7 9 7 10 11 10 11
7 6 6 6 5 4 4 4 3 3 2 2 2 2 2 2 2 3 3 3 3 3 3 4 4 4 6 11 11 11 5 3 4 5 5 6 7 7 8 7 7 7 7
6 6 6 5 4 5 4 4 3 2 2 2 3 2 2 2 2 3 3 3 3 3 3 4 4 4 6 11 11 11 3 4 5 5 5 6 7 12 14 9 8 9 8
4 5 4 4 4 4 4 4 3 3 4 4 3 3 2 2 3 3 3 2 2 3 4 4 4 4 5 10 12 11 3 4 5 5 5 9 11 15 15 9 8 9 9
4 4 4 4 5 4 5 4 4 5 5 3 2 2 2 2 2 2 2 2 3 3 3 4 4 4 6 9 12 12 5 4 6 6 5 6 15 17 16 13 8 11 12
4 4 4 4 4 4 5 5 5 5 3 2 2 2 2 2 2 2 2 2 2 3 4 4 4 3 4 7 10 13 12 10 6 6 6 8 17 17 17 12 13 16 13
5 5 5 5 4 4 5 6 5 3 3 2 2 2 2 2 1 1 2 2 2 2 3 3 4 4 3 5 11 13 14 14 8 6 12 15 17 15 11 13 15 12 6
6 5 5 5 5 5 5 5 4 4 3 3 2 2 1 2 2 2 2 2 2 3 4 4 4 5 4 4 5 5 6 9 8 7 10 14 13 11 11 11 9 6 5
5 5 7 7 7 5 5 4 4 4 4 3 3 2 2 1 2 2 2 3 3 3 4 3 3 4 5 7 12 9 6 6 6 7 4 4 5 5 5 5 5 5 5
5 6 7 7 6 5 5 4 4 5 5 3 3 2 2 1 1 2 3 5 5 8 8 8 7 6 9 13 14 14 14 14 14 8 5 5 5 6 7 7 7 6 6
Wind_Direction
322 6 10 7 7 4 0 355 353 348 350 348 344 342 342 342 345 342 340 340 338 333 329 321 317 305 276 267 255 238 234 233 222 232 253 250 237 229 225 221 218 220 220
348 358 3 7 6 -0 355 353 352 349 350 344 334 322 315 326 335 335 337 343 341 338 336 336 324 320 304 295 288 275 252 237 208 208 230 255 258 240 230 222 220 223 218
253 336 357 356 356 355 351 348 344 346 348 346 345 342 341 336 346 344 343 343 340 341 341 335 327 326 318 302 298 291 273 265 240 205 207 215 232 256 243 227 225 225 224
241 307 340 341 346 342 342 345 343 347 349 352 355 355 354 341 330 327 328 331 339 342 344 341 338 335 327 321 304 302 276 265 269 258 238 243 239 233 259 252 228 226 227
220 232 283 307 326 334 341 344 344 349 351 356 354 351 346 331 322 331 336 335 339 346 346 344 341 339 331 321 314 314 301 273 264 268 272 258 263 250 252 259 246 240 227
216 231 268 302 325 336 343 345 346 346 351 355 357 359 351 342 341 341 337 333 333 338 345 345 345 342 338 328 318 311 302 293 287 280 277 272 250 241 249 256 253 249 239
210 226 253 289 310 324 332 337 344 345 347 352 353 354 352 345 342 335 331 335 337 339 343 346 344 345 344 341 337 336 324 312 301 285 277 276 272 274 259 260 267 260 257
217 224 229 237 260 286 307 325 339 341 344 347 343 345 349 347 341 338 338 339 334 334 342 346 346 347 346 346 340 339 329 328 308 302 289 276 277 275 271 266 275 276 260
222 224 226 225 238 262 279 293 319 328 336 341 340 347 348 348 344 340 337 333 333 338 346 344 347 351 352 348 339 335 334 331 321 308 301 288 280 270 270 268 259 262 267
227 227 224 224 231 241 261 280 287 299 316 337 345 355 346 345 343 344 343 339 336 339 342 348 348 351 355 357 354 343 342 337 329 323 324 312 304 295 278 266 261 251 258
223 224 224 225 226 236 248 267 290 312 327 331 334 341 335 336 341 344 339 335 337 342 344 343 348 351 355 357 356 352 349 346 343 341 332 321 316 310 302 288 276 265 256
220 219 219 219 222 231 242 252 265 287 301 310 327 331 332 338 344 339 335 338 341 345 346 348 353 352 354 355 353 350 348 343 342 338 335 334 329 323 315 305 292 279 268
228 222 217 217 221 226 230 236 240 252 284 315 333 334 338 343 341 336 336 340 344 346 349 353 354 350 348 348 347 343 340 335 332 334 336 333 329 322 312 305 297 294 292
225 219 220 222 222 222 222 222 233 240 254 302 323 327 325 326 325 327 332 335 339 345 344 345 344 340 337 340 338 337 336 333 334 338 337 333 329 324 320 314 309 307 301
228 221 218 219 218 218 219 219 227 234 235 253 291 297 307 318 327 332 334 336 341 342 336 339 338 336 336 341 343 337 336 333 335 335 332 329 328 329 326 322 318 317 304
230 223 217 213 214 213 212 213 221 223 215 235 268 285 303 319 324 323 332 339 337 332 339 340 336 337 339 341 346 346 338 336 333 328 327 326 328 328 327 324 320 315 306
228 220 216 214 215 211 204 206 213 210 206 230 264 281 294 308 311 318 335 336 332 333 332 326 329 327 328 341 345 344 339 333 327 322 320 322 325 327 319 316 316 312 310
224 219 213 212 212 205 201 198 194 196 209 231 257 275 286 293 307 321 325 320 318 322 319 320 320 320 327 341 343 342 343 325 316 311 308 309 311 314 317 310 307 300 299
220 213 206 199 195 196 193 180 189 199 212 235 251 260 266 282 302 310 308 307 315 318 315 315 320 320 322 335 339 342 326 317 310 307 307 310 305 314 321 317 308 303 299
212 200 188 180 188 198 177 172 194 202 224 236 244 249 251 264 282 289 295 302 306 308 318 319 318 314 313 328 337 338 325 318 313 308 304 312 315 317 320 313 306 303 302
210 190 180 188 200 189 171 183 198 219 229 231 238 249 255 264 273 285 295 302 307 315 315 310 312 309 315 327 333 333 329 315 311 310 309 307 318 318 318 315 303 301 305
210 192 188 202 201 185 178 193 217 226 215 208 222 243 261 276 299 294 300 302 304 309 307 306 309 303 306 322 325 329 328 324 313 307 304 306 316 319 320 318 313 313 313
212 200 196 203 208 198 189 203 223 207 192 196 218 241 264 275 283 274 287 300 301 300 304 305 307 308 304 310 323 326 325 325 319 305 310 314 318 321 320 319 320 320 311
212 202 194 204 217 213 210 213 209 186 178 196 220 233 243 274 289 291 283 285 291 294 300 304 306 307 308 303 306 307 311 316 315 309 311 317 319 318 316 319 319 313 306
215 201 202 211 217 210 215 213 195 174 181 197 213 226 236 244 269 280 269 279 260 266 291 287 289 301 305 309 318 322 315 314 308 316 310 312 315 316 313 310 308 310 313
213 211 213 215 214 204 209 207 191 178 181 198 209 215 224 241 257 280 297 298 300 309 311 311 309 301 307 315 321 323 323 323 323 324 315 313 313 313 314 314 313 310 308